This is the latest recevied weather packets stored in our database for station/object WA6OOO. If no packets are shown the sender has not sent any weather packets the latest 10 day(s).
| Time | Temp. | Humidity | Pressure | Rain* | Wind** | Luminosity | Snow |
|---|---|---|---|---|---|---|---|
| 1788481255 | 22.78° C | 67% | 1015.4 hPa | 0 mm | - | 187 W/m² | - |
| 1788480951 | 23.33° C | 66% | 1015.5 hPa | 0 mm | - | 200 W/m² | - |
| 1788480650 | 23.89° C | 66% | 1015.4 hPa | 0 mm | - | 214 W/m² | - |
| 1788480345 | 23.33° C | 67% | 1015.4 hPa | 0 mm | - | 229 W/m² | - |
| 1788480042 | 23.89° C | 65% | 1015.3 hPa | 0 mm | - | 242 W/m² | - |
| 1788479741 | 23.89° C | 63% | 1015.4 hPa | 0 mm | - | 256 W/m² | - |
| 1788479437 | 23.89° C | 62% | 1015.5 hPa | 0 mm | - | 269 W/m² | - |
| 1788479132 | 22.78° C | 64% | 1015.5 hPa | 0 mm | - | 284 W/m² | - |
| 1788478828 | 23.33° C | 64% | 1015.4 hPa | 0 mm | - | 298 W/m² | - |
| 1788478524 | 23.89° C | 65% | 1015.5 hPa | 0 mm | - | 312 W/m² | - |
| 1788478219 | 23.89° C | 64% | 1015.6 hPa | 0 mm | - | 324 W/m² | - |
| 1788477915 | 23.89° C | 64% | 1015.6 hPa | 0 mm | - | 339 W/m² | - |
| 1788477614 | 23.89° C | 64% | 1015.7 hPa | 0 mm | - | 352 W/m² | - |
| 1788477309 | 23.89° C | 66% | 1015.8 hPa | 0 mm | - | 366 W/m² | - |
| 1788477003 | 23.89° C | 65% | 1015.8 hPa | 0 mm | - | 379 W/m² | - |
| 1788476699 | 23.89° C | 65% | 1015.8 hPa | 0 mm | - | 397 W/m² | - |
| 1788476390 | 23.89° C | 64% | 1015.9 hPa | 0 mm | - | 413 W/m² | - |
| 1788476084 | 24.44° C | 64% | 1016 hPa | 0 mm | - | 427 W/m² | - |
| 1788475781 | 24.44° C | 64% | 1016 hPa | 0 mm | - | 441 W/m² | - |
| 1788475477 | 23.89° C | 65% | 1016.1 hPa | 0 mm | - | 455 W/m² | - |
| 1788475173 | 23.89° C | 64% | 1016.3 hPa | 0 mm | - | 470 W/m² | - |
| 1788474872 | 23.89° C | 66% | 1016 hPa | 0 mm | - | 481 W/m² | - |
| 1788474571 | 24.44° C | 63% | 1016.2 hPa | 0 mm | - | 497 W/m² | - |
| 1788474266 | 24.44° C | 65% | 1016.2 hPa | 0 mm | - | 512 W/m² | - |
| 1788473960 | 25° C | 64% | 1016.2 hPa | 0 mm | - | 520 W/m² | - |
* Rain latest hour (hover to see other rain measurements)
** Current wind speed in m/s (hover to see current wind gust speed)